Pocatello, ID

1:29 PM MDT on July 27, 2017 (GMT -0600)
Diamond W Trailer Park | | Change Station

Elev 5537 ft 42.89 °N, 112.47 °W | Updated 1 minute ago

Mostly Cloudy
Mostly Cloudy
79.3 °F
Feels Like 79 °F
N
1.0
Wind Variable Wind from NNW

Today
High -- | Low -- °F
--% Chance of Precip.
Yesterday
High -- | Low -- °F
Precip. -- in
Pressure 30.09 in
Visibility 10.0 miles
Clouds Few 3200 ft
Mostly Cloudy 11000 ft
Heat Index 79 °F
Dew Point 51 °F
Humidity 37%
Rainfall 0.00 in
Snow Depth Not available.
6:16 AM 8:55 PM
Waxing Crescent, 23% visible
METAR KPIH 271853Z 11005KT 10SM -RA FEW032 BKN110 24/13 A3021 RMK AO2 RAB51 SLP188 P0000 T02390128
Pressure 30.09 in
Visibility 10.0 miles
Clouds Few 3200 ft
Mostly Cloudy 11000 ft
Heat Index 79 °F
Dew Point 51 °F
Humidity 37%
Rainfall 0.00 in
Snow Depth Not available.
6:16 AM 8:55 PM
Waxing Crescent, 23% visible
METAR KPIH 271853Z 11005KT 10SM -RA FEW032 BKN110 24/13 A3021 RMK AO2 RAB51 SLP188 P0000 T02390128

Get Severe Weather Alerts

Thanks for signing up!

Be on the lookout for a verification email in your inbox.

You'll start receiving the daily forecast at 6 AM.

×

10-Day Weather Forecast

Almanac

Astronomy

Jul. 27, 2017 Rise Set
Actual Time
Civil Twilight
Nautical Twilight
Astronomical Twilight
Moon
Length of Visible Light
Length of Day
Tomorrow will be .
, % of the Moon is Illuminated

Today's Extremes

State Highs State Lows

Community

WunderPhotos

Category 6

Welcome to Category 6. This is the collective home for Weather Underground's featured writeups by Dr. Jeff Masters (right), Bob Henson (left), Chris Burt, and other regular contributors.

Nearby

Air Quality

  Air Quality AQ Index Pollutant
Not available.

Snow Depth

Station Depth Elevation

Earthquake Activity

City Distance Mag. Time & Date
Minimum magnitude displayed is 2.5.

Coastal Water Temperatures

Place Temperature

Stations

Nearby Weather Stations

Station Location Temp. Windchill Dew Point Humidity Wind Precip. Elev Updated Type
                   

Watches & Warnings

There are currently no watches in effect.